« Back
NWS Peachtree City, Ga » Text Product » GA Regional Weather Roundup


Printer-friendly Version
Current Version              Previous Versions:   1  2  3  4  5  6  7  8  9  

Regional Weather Roundup

710
ASUS42 KFFC 171003
RWRGA
WEATHER ROUNDUP FOR GEORGIA
NATIONAL WEATHER SERVICE PEACHTREE CITY GA
600 AM EDT WED SEP 17 2014

NOTE: "FAIR" INDICATES FEW OR NO CLOUDS BELOW 12,000 FEET WITH NO
SIGNIFICANT WEATHER AND/OR OBSTRUCTIONS TO VISIBILITY.

* = USE WITH CAUTION. THE STATIONS MARKED WITH AN ASTERISK MAY NOT
REPORT WEATHER SUCH AS PRECIPITATION, FOG, OR THUNDER AND ARE NOT
QUALITY CONTROLLED BY NWS.

THE REMARK "TC" DENOTES TEMPERATURE READING IN DEGREES CELSIUS.

GAZ001>058-171100-
NORTH GEORGIA

CITY           SKY/WX    TMP DP  RH WIND       PRES   REMARKS
ATLANTA        PTCLDY    68  65  90 NW7       29.97S
ATHENS         PTCLDY    69  66  90 N3        29.96R
CHAMBLEE       CLEAR     67  64  90 N7        29.97F
PEACHTREE CITY CLEAR     69  66  90 NW5       29.97S
ROME           PTCLDY    65  63  93 CALM      30.00R
WEST ATLANTA   CLEAR     68  64  87 CALM      29.97S
GAINESVILLE    CLEAR     67  65  93 W5        29.99F
CARTERSVILLE   MOCLDY    66  64  93 CALM      30.00S


CITY           SKY/WX    TMP DP  RH WIND       PRES   REMARKS
DALTON*        CLEAR     63  63 100 NW5       30.00S
MARIETTA       CLEAR     67  65  93 NW7       29.98S
$$

GAZ059>098-102>109-171100-
CENTRAL GEORGIA

CITY           SKY/WX    TMP DP  RH WIND       PRES   REMARKS
AUGUSTA-BUSH   CLOUDY    70  67  90 CALM      29.93R
AUGUSTA-DANIEL CLOUDY    71  68  90 E6        29.94S
COLUMBUS       CLEAR     72  69  90 N3        29.94R
MACON          CLEAR     68  68 100 CALM      29.93S FOG
ROBINS AFB     CLEAR     70  69  98 NW7       29.93R


CITY           SKY/WX    TMP DP  RH WIND       PRES   REMARKS
LAGRANGE*      CLOUDY    74  72  93 CALM      29.97R
SYLVANIA*      FOG       71  71  99 NE3       29.92S VSB 1/4
MILLEDGEVILLE* CLEAR     70  70 100 CALM      29.93S FOG
$$

GAZ099>101-110>166-171100-
SOUTH GEORGIA

CITY           SKY/WX    TMP DP  RH WIND       PRES   REMARKS
SAVANNAH       PTCLDY    70  67  90 CALM      29.92R
VALDOSTA       MOCLDY    71  70  96 CALM      29.93S
ALMA           PTCLDY    71  69  93 CALM      29.92S
ST SIMONS      MOCLDY    72  69  90 NW3       29.90S
FT STEWART     CLEAR     69  68  95 CALM      29.90S
ALBANY         CLEAR     70  69  97 CALM      29.95R
HUNTER AFB     PTCLDY    70  69  99 N3        29.90R
MOODY AFB      MOCLDY    71  70  96 W3        29.92F
BRUNSWICK      CLOUDY    72  70  94 CALM      29.91S


CITY           SKY/WX    TMP DP  RH WIND       PRES   REMARKS
BAINBRIDGE*    PTCLDY    73  72  94 CALM      29.94R
MOULTRIE*      CLEAR     72  72 100 CALM      29.94S
VIDALIA*       CLEAR     70  70 100 CALM      29.92S
WAYCROSS*      FOG       74  74 100 CALM      29.92R VSB 3/4
DOUGLAS*       MOCLDY    72  70  94 CALM      29.94S FOG
$$



USA.gov is the U.S. government's official web portal to all federal, state and local government web resources and services.